Вернуться в каталог

CZ-3C DEB

АктивенHEO
NORAD 40194·DEBRIS·🇨🇳 China

Запущен Feb 24, 2012 с Xichang Satellite Launch Center

Loading…

Ближайшие Пролёты (ближайшие 24 часа)

TLE

СвежийSource: Space-Track

Эпоха: Sep 11, 2026, 08:39 UTC

1 40194U 12008D   26254.36095146 -.00000141  00000-0  00000-0 0  9999
2 40194  20.9354 323.8082 6428016  98.5483 333.8297  2.12993939 99744

Отслеживайте CZ-3C DEB в реальном времени с AllMySat

Download on the App Store